Tracking 29892 objects as of 21-Nov-2024
HD Live streaming from Space Station
objects crossing your sky now

YAOGAN-34 02

Track YAOGAN-34 02 now!
10-day predictions
YAOGAN-34 02 is classified as:


NORAD ID: 52084
Int'l Code: 2022-027A
Perigee: 1,033.4 km
Apogee: 1,159.5 km
Inclination: 63.4 °
Period: 107.0 minutes
Semi major axis: 7467 km
RCS: Unknown
Launch date: March 17, 2022
Source: People's Republic of China (PRC)
Launch site: Jiuquan Satellite Launch Center, China (JSC)
Your satellite tracking list
Your tracking list is empty




NASA's NSSDC Master Catalog

Two Line Element Set (TLE):
1 52084U 22027A   24325.89317324  .00000000  00000-0  14854-3 0  9990
2 52084  63.3978 233.8873 0084380 357.5548   2.5054 13.45379052131786
Source of the keplerian elements: AFSPC